Valentine, NE

2:03 AM CST on December 13, 2019 (GMT -0600)
Miller Field

Weather History for KVTN - October, 2019

Change the Weather History Date:

Friday, October 25, 2019

  Actual Average Record
Temperature  
Mean Temperature 45 °F 45 °F  
Max Temperature 66 °F 59 °F 86 °F (1940)
Min Temperature 23 °F 31 °F 13 °F (1962)
Degree Days  
Heating Degree Days 20 20  
Month to date heating degree days 488 388  
Since 1 July heating degree days 541 573  
Cooling Degree Days 0 0  
Month to date cooling degree days 0 1  
Year to date cooling degree days 930 818  
Moisture  
Dew Point 26 °F    
Average Humidity 53    
Maximum Humidity 77    
Minimum Humidity 26    
Precipitation  
Precipitation 0.00 in 0.04 in 1.42 in (1897)
Month to date precipitation 1.17 1.07  
Year to date precipitation 28.07 18.82  
Snow  
Snow 0.00 in 0.10 in 3.00 in (1997)
Month to date snowfall 1.9 1.0  
Since 1 July snowfall 1.9 1.7  
Since 1 September snowfall 1.9 1.7  
Snow Depth 0.00 in    
Sea Level Pressure  
Sea Level Pressure 30.15 in    
Wind  
Wind Speed 6 mph ()    
Max Wind Speed 18 mph    
Max Gust Speed 27 mph    
Visibility 10.0 miles    
Events      
T = Trace of Precipitation, MM = Missing Value Source: Averaged Metar Reports

Daily Weather History Graph

Daily Weather History Graph

Search for Another Location

Airport or City:

Astronomy

Oct. 25, 2019 Rise Set
Actual Time 8:07 AM CDT 6:44 PM CDT
Civil Twilight 7:38 AM CDT 7:13 PM CDT
Nautical Twilight 7:05 AM CDT 7:46 PM CDT
Astronomical Twilight 6:32 AM CDT 8:19 PM CDT
Moon 4:45 AM CDT (10/25) 5:53 PM CDT (10/25)
Length of Visible Light 11h 34m
Length of Day
10h 36m
Waning Crescent, 9% of the Moon is Illuminated
Oct 25
Waning Crescent
Oct 27
New
Nov 4
First Quarter
Nov 12
Full
Nov 19
Last Quarter

Hourly Weather History & Observations

Time (CDT) Temp. Windchill Dew Point Humidity Pressure Visibility Wind Dir Wind Speed Gust Speed Precip Events Conditions
12:52 AM 30.0 °F 26.5 °F 21.0 °F 69% 30.33 in 10.0 mi SW 3.5 mph - N/A   Clear
1:52 AM 28.0 °F 20.8 °F 19.9 °F 72% 30.32 in 10.0 mi SW 6.9 mph - N/A   Clear
2:52 AM 26.1 °F 17.6 °F 19.0 °F 75% 30.31 in 10.0 mi SSW 8.1 mph - N/A   Clear
3:52 AM 26.1 °F - 19.0 °F 75% 30.30 in 10.0 mi Calm Calm - N/A   Clear
4:52 AM 30.0 °F 26.5 °F 21.0 °F 69% 30.27 in 10.0 mi West 3.5 mph - N/A   Clear
5:52 AM 28.9 °F 21.1 °F 21.0 °F 72% 30.27 in 10.0 mi WSW 8.1 mph - N/A   Clear
6:52 AM 27.0 °F 18.7 °F 19.9 °F 75% 30.28 in 10.0 mi West 8.1 mph - N/A   Clear
7:52 AM 24.1 °F 16.0 °F 18.0 °F 77% 30.30 in 10.0 mi SW 6.9 mph - N/A   Clear
8:52 AM 30.0 °F 22.4 °F 23.0 °F 75% 30.31 in 10.0 mi WSW 8.1 mph - N/A   Clear
9:52 AM 37.9 °F 30.0 °F 26.1 °F 62% 30.30 in 10.0 mi WSW 12.7 mph - N/A   Clear
10:52 AM 46.9 °F - 27.0 °F 46% 30.25 in 10.0 mi WSW 10.4 mph - N/A   Clear
11:52 AM 54.0 °F - 26.1 °F 34% 30.22 in 10.0 mi West 8.1 mph - N/A   Clear
12:52 PM 57.9 °F - 28.0 °F 32% 30.18 in 10.0 mi SSW 9.2 mph - N/A   Clear
1:52 PM 63.0 °F - 28.0 °F 27% 30.13 in 10.0 mi WSW 11.5 mph - N/A   Clear
2:52 PM 64.9 °F - 28.9 °F 26% 30.10 in 10.0 mi WSW 10.4 mph 18.4 mph N/A   Clear
3:52 PM 66.9 °F - 30.9 °F 26% 30.05 in 10.0 mi SW 9.2 mph - N/A   Clear
4:52 PM 66.9 °F - 30.9 °F 26% 30.03 in 10.0 mi SW 8.1 mph - N/A   Clear
5:52 PM 64.9 °F - 32.0 °F 29% 30.01 in 10.0 mi SSW 4.6 mph - N/A   Clear
6:52 PM 54.0 °F - 32.0 °F 43% 30.01 in 10.0 mi SSW 6.9 mph - N/A   Clear
7:52 PM 46.0 °F 42.5 °F 32.0 °F 58% 30.02 in 10.0 mi SSW 6.9 mph - N/A   Clear
8:52 PM 45.0 °F 40.1 °F 32.0 °F 60% 29.99 in 10.0 mi SSW 9.2 mph - N/A   Clear
9:52 PM 46.9 °F - 30.9 °F 54% 29.94 in 10.0 mi SW 8.1 mph - N/A   Clear
10:52 PM 52.0 °F - 30.9 °F 45% 29.90 in 10.0 mi SSW 13.8 mph - N/A   Clear
11:52 PM 51.1 °F - 30.0 °F 44% 29.88 in 10.0 mi SW 15.0 mph - N/A   Clear